Location: Fenton Hill Observtory
(35.8809°N, 106.6741°W)
Time: 16:22:08
(UTC-06:00)

OTV 5 (USA 277) - Visible Passes

Search period start: 23 March 2019 00:00
Search period end: 02 April 2019 00:00
Orbit: 315 x 320 km, 54.5° (Epoch: 14 March)

Date Brightness Start Highest point End Pass type
(mag) Time Alt. Az. Time Alt. Az. Time Alt. Az.
29 Mar ? 06:14:03 10° S 06:16:19 25° SE 06:18:36 10° ENE visible
30 Mar ? 06:28:14 10° SW 06:30:55 84° NW 06:33:37 10° NE visible
31 Mar ? 05:11:12 14° SE 05:11:32 14° SE 05:13:05 10° E visible
01 Apr ? 05:25:51 46° SSE 05:26:03 47° SE 05:28:40 10° NE visible
